Woodinville, Washington, United States (98072)
Lat: 47.75N, Lon: 122.16W
Wx Zone: WAZ505
Local Info
Past Weather Observations for Monday, March 2, 2015

NOTE: This archive is for the closest National Weather Service station to Woodinville. Information may differ from the station used for current weather conditions.

Click here for Long-term Archive

Time Weather Temperature Dewpoint Humidity Pressure Winds Precip Visibility
23:53
Clear
39°F / 4°C 27°F / -3°C 61% 30.15 in
(1021 mb)
NNW 3.5 mph
(NNW 6 kph)
- 10SM
22:53
Clear
43°F / 6°C 30°F / -1°C 61% 30.12 in
(1020 mb)
N 6.9 mph
(N 11 kph)
- 10SM
21:53
Clear
43°F / 6°C 32°F / 0°C 66% 30.12 in
(1020 mb)
N 8.1 mph
(N 13 kph)
- 10SM
20:53
Clear
45°F / 7°C 30°F / -1°C 57% 30.09 in
(1019 mb)
N 8.1 mph
(N 13 kph)
- 10SM
19:53
Clear
45°F / 7°C 30°F / -1°C 57% 30.06 in
(1018 mb)
NW 3.5 mph
(NW 6 kph)
- 10SM
18:53
Clear
45°F / 7°C 30°F / -1°C 57% 30.06 in
(1018 mb)
WNW 5.8 mph
(WNW 9 kph)
- 10SM
17:53
Clear
46°F / 8°C 32°F / 0°C 57% 30.06 in
(1018 mb)
NNW 11.5 mph
(NNW 19 kph)
- 10SM
16:53
Clear
48°F / 9°C 32°F / 0°C 54% 30.04 in
(1017 mb)
NNW 9.2 mph
(NNW 15 kph)
- 10SM
15:53
Partly Cloudy
48°F / 9°C 34°F / 1°C 58% 30.04 in
(1017 mb)
NW 9.2 mph
(NW 15 kph)
- 10SM
14:53
Partly Cloudy
48°F / 9°C 36°F / 2°C 62% 30.04 in
(1017 mb)
WNW 13.8 mph
(WNW 22 kph)
- 10SM
13:53
Partly Cloudy
48°F / 9°C 37°F / 3°C 66% 30.04 in
(1017 mb)
NW 13.8 mph
(NW 22 kph)
- 10SM
12:53
Partly Cloudy
46°F / 8°C 37°F / 3°C 71% 30.04 in
(1017 mb)
NW 10.4 mph
(NW 17 kph)
- 10SM
11:53
Partly Cloudy
48°F / 9°C 36°F / 2°C 62% 30.04 in
(1017 mb)
N 10.4 mph
(N 17 kph)
- 10SM
11:10
Partly Cloudy
46°F / 8°C 36°F / 2°C 66% 30.04 in
(1017 mb)
NNW 12.7 mph
(NNW 20 kph)
- 10SM
11:00
Mostly Cloudy
46°F / 8°C 36°F / 2°C 66% 30.04 in
(1017 mb)
NNW 11.5 mph
(NNW 19 kph)
- 10SM
10:53
Partly Cloudy
46°F / 8°C 37°F / 3°C 71% 30.04 in
(1017 mb)
NNW 10.4 mph
(NNW 17 kph)
- 10SM
09:53
Partly Cloudy
43°F / 6°C 36°F / 2°C 76% 30.04 in
(1017 mb)
N 10.4 mph
(N 17 kph)
- 10SM
08:53
Partly Cloudy
41°F / 5°C 36°F / 2°C 81% 30.04 in
(1017 mb)
NNW 11.5 mph
(NNW 19 kph)
- 10SM
08:28
Overcast
41°F / 5°C 37°F / 3°C 87% 30.04 in
(1017 mb)
N 8.1 mph
(N 13 kph)
- 10SM
07:53
Mostly Cloudy
41°F / 5°C 36°F / 2°C 81% 30.04 in
(1017 mb)
NNW 6.9 mph
(NNW 11 kph)
- 10SM
07:50
Mostly Cloudy
39°F / 4°C 36°F / 2°C 87% 30.04 in
(1017 mb)
NNW 6.9 mph
(NNW 11 kph)
- 10SM
06:53
Overcast
41°F / 5°C 36°F / 2°C 81% 30.01 in
(1016 mb)
N 11.5 mph
(N 19 kph)
- 10SM
05:53
Mostly Cloudy
39°F / 4°C 36°F / 2°C 87% 30.01 in
(1016 mb)
N 12.7 mph
(N 20 kph)
- 10SM
05:50
Mostly Cloudy
39°F / 4°C 36°F / 2°C 87% 30.01 in
(1016 mb)
N 12.7 mph
(N 20 kph)
- 10SM
05:39
Mostly Cloudy
39°F / 4°C 36°F / 2°C 87% 30.01 in
(1016 mb)
N 11.5 mph
(N 19 kph)
- 10SM
04:53
Overcast
41°F / 5°C 36°F / 2°C 81% 30.01 in
(1016 mb)
N 10.4 mph
(N 17 kph)
- 10SM
03:53
Overcast
41°F / 5°C 36°F / 2°C 81% 30.01 in
(1016 mb)
N 6.9 mph
(N 11 kph)
- 10SM
03:11
Overcast
41°F / 5°C 37°F / 3°C 87% 30.01 in
(1016 mb)
NNW 8.1 mph
(NNW 13 kph)
- 10SM
02:53
Overcast
41°F / 5°C 36°F / 2°C 81% 30.01 in
(1016 mb)
NNW 5.8 mph
(NNW 9 kph)
- 10SM
01:53
Overcast
41°F / 5°C 36°F / 2°C 81% 29.98 in
(1015 mb)
N 9.2 mph
(N 15 kph)
- 10SM
00:53
Overcast
41°F / 5°C 36°F / 2°C 81% 29.98 in
(1015 mb)
N 9.2 mph
(N 15 kph)
- 10SM
Time Weather Temperature Dewpoint Humidity Pressure Winds Precip Visibility


Weather for websites

WeatherForYou.com, LLC is not responsible for any damages or problems caused by this service. Current weather conditions are obtained from the closest station including government and personal stations which may have varying degrees of accuracy. Weather forecasts are derived from the NOAA NDFD. Like all things, this site belongs to Jesus Christ... He just trusts me to maintain it. If you have any questions or comments email webmaster@weatherforyou.com

Copyright © 2015, WeatherForYou.com LLC. All rights reserved.